Regional Weather Roundup
Issued by NWS

Home | Current Version | Previous Version | Text Only | Print | Product List | Glossary Off
Versions: 1 2 3 4 5 6 7 8 9 10 11 12 13 14 15 16 17 18 19 20 21 22 23 24 25 26 27

000
ASUS45 KSLC 230910
RWRUT

UTAH REGIONAL WEATHER ROUNDUP
NATIONAL WEATHER SERVICE SALT LAKE CITY UT
300 AM MDT SUN APR 23 2017

UTZ001>011-023>025-231000-

NORTHERN UTAH

CITY           SKY/WX    TMP DP  RH WIND       PRES   REMARKS
BRIGHAM CITY   CLOUDY    44  37  76 CALM      29.94R
HILL AFB       NOT AVBL
LOGAN          MOCLDY    42  37  82 CALM      29.93F
OGDEN          CLOUDY    49  32  52 E5        29.93S
SALT LAKE CITY CLOUDY    52  33  48 SE9       29.91F
TOOELE VALLEY  CLOUDY    48  34  57 SE8       29.91F
WENDOVER       PTCLDY    50  35  56 NW7       29.91F
HEBER CITY     CLEAR     34  27  75 CALM      29.98F
WEST JORDAN    MOCLDY    53  40  63 S12       29.93F

$$

UTZ011>015-024>027-231000-

CENTRAL/NORTHEAST UTAH

CITY           SKY/WX    TMP DP  RH WIND       PRES   REMARKS
PROVO AIRPORT  NOT AVBL
MOAB/CANYONLAN MOCLDY    46  18  32 CALM      30.02F
DELTA          MOCLDY    43  34  70 CALM      29.93F
PRICE          MOCLDY    41  20  43 N9        30.06F
ROOSEVELT      CLOUDY    36  28  75 W3        30.08F
VERNAL         CLOUDY    38  25  59 CALM      30.06F

$$

UTZ013>016-019>022-027-231000-

SOUTHERN UTAH

CITY           SKY/WX    TMP DP  RH WIND       PRES   REMARKS
BRYCE CANYON   MOCLDY    30  24  78 W5        30.13F WCI  25
CEDAR CITY     MOCLDY    49  28  44 S8        29.97F
MILFORD        CLOUDY    43  33  68 S8        29.93F
ST GEORGE      SUNNY     61  25  25 SE8       29.89F
HANKSVILLE     MOCLDY    41  12  30 CALM      30.05F
BLANDING       PTCLDY    42  18  37 NE9       30.17F

$$

REGIONAL REPORTS     COLORADO/ARIZONA

CITY           SKY/WX    TMP DP  RH WIND       PRES   REMARKS
CRAIG, CO      CLOUDY    30  25  81 CALM      30.12F
GRAND JUNCTION CLOUDY    46  22  38 SE8       30.07F
RIFLE, CO      CLOUDY    37  27  67 S3        30.12F
MONTROSE, CO   CLOUDY    38  23  55 S6        30.14S WCI  33
CORTEZ, CO     CLOUDY    29  21  72 VRB3      30.14F
COLORADO CITY    N/A     46  27  46 SE5       30.01F
PAGE, AZ       PTCLDY    53  22  29 SE3       30.01F
GRAND CANYON   CLEAR     35  22  58 CALM      30.10F
KINGMAN, AZ    CLEAR     56  25  30 SE12      29.90F
FLAGSTAFF, AZ  CLEAR     33  21  61 CALM      30.13F

$$

REGIONAL REPORTS    NEVADA/IDAHO/WYOMING

CITY           SKY/WX    TMP DP  RH WIND       PRES   REMARKS
LAS VEGAS, NV  MOCLDY    68  24  19 S6        29.79F
ELY, NY        MOCLDY    49  26  41 S15       29.96F
ELKO, NV       MOCLDY    48  37  65 CALM      29.91F
POCATELLO, ID  PTCLDY    43  37  79 NW9       29.90F
BURLEY, ID     LGT RAIN  52  31  44 VRB3      29.89R
EVANSTON, WY   CLOUDY    39  22  50 SE6       30.01F WCI  35
ROCK SPRINGS,  CLOUDY    40  22  48 SE9       30.03F WCI  34
KEMMERER, WY     N/A     32  28  86 N5        30.03F WCI  27

$$




USA.gov is the U.S. government's official web portal to all federal, state and local government web resources and services.